PCSAT (NO-44) (26931 NORAD) Tracking and Keplerian Element Data

This shows tracking and keplerian element data for the satellite.

Feedback or suggestion? Click here.




ElementValue
Catalog26931
NamePCSAT (NO-44)
Epoch Orbit26481
Epoch Day354.14032425
Epoch Year2025
RAAN347.3398
Inclination67.0515
Eccentricity0.0007419
Argument of Perigee269.503
Mean Anonmoly90.5222
Mean Motion14.31858652
Decay Rate1.12E-06
L11 26931U 01043C 25354.14032425 .00000112 00000+0 72918-4 0 9993
L22 26931 67.0515 347.3398 0007419 269.5030 90.5222 14.31858652264814



Live tracking and technical data element details for PCSAT (NO-44) (NORAD 26931). PCSAT (NO-44) can be tracked NOW for your location showing map with azimuth and elevation plus other details from your city location.







IsCatalogInMostPopularTable: catalog: 26931, numindb: 1642
Update: records affected: 1



GetName: 26931 PCSAT (NO-44)

Hit Count: updated at: Sat, 18 Apr 2026 16:41:31 GMT